Location: Newark
(48.1500°N, 2.9667°W)
Time: 01:57:48
(UTC+00:00)

A-11 Canister half - Pass Details

Date: 28 January 2020
Orbit: 1524 x 1684 km, 47.3° (Epoch: 21 February)

Event Time Altitude Azimuth Distance (km) Brightness Sun altitude
Rises 23:24:38 0° 290° (WNW) 4,750 11.9 -57.6°
Reaches altitude 10° 23:27:58 10° 283° (WNW) 3,785 11.2 -57.8°
Enters shadow 23:28:04 10° 282° (WNW) 3,757 11.2 -57.8°
Maximum altitude 23:36:26 37° 221° (SW) 2,335 - -58.4°
Drops below altitude 10° 23:45:09 10° 159° (SSE) 3,885 - -58.9°
Sets 23:48:38 0° 151° (SSE) 4,888 - -59.1°
